Weather History for Orangeburg, SC

Change the Weather History Date:

Thursday, April 3, 2014

  Actual Average Record
Temperature  
Mean Temperature 71 °F 61 °F  
Max Temperature 85 °F 74 °F 90 °F (1978)
Min Temperature 56 °F 48 °F 32 °F (1962)
Degree Days  
Heating Degree Days 0 5  
Month to date heating degree days 1 17  
Since 1 July heating degree days 2251 2226  
Cooling Degree Days 6 1  
Month to date cooling degree days 9 3  
Year to date cooling degree days 17 23  
Growing Degree Days 20 (Base 50)    
Moisture  
Dew Point 47 °F    
Average Humidity 46    
Maximum Humidity 72    
Minimum Humidity 20    
Precipitation  
Precipitation 0.00 in 0.12 in 1.63 in (1998)
Month to date precipitation 0.00 0.36  
Year to date precipitation 8.79 11.91  
Sea Level Pressure  
Sea Level Pressure 30.04 in    
Wind  
Wind Speed 10 mph (SW)    
Max Wind Speed 21 mph    
Max Gust Speed 27 mph    
Visibility 10 miles    
Events      
T = Trace of Precipitation, MM = Missing Value Source: NWS Daily Summary

Daily Weather History Graph

Daily Weather History Graph

Search for Another Location

Airport:

Trip Planner

Search our weather history database for the weather conditions in past years. The results will help you decide how hot, cold, wet, or windy it might be!

Date:

Astronomy

Apr. 03, 2014 Rise Set
Actual Time 7:08 AM EDT 7:45 PM EDT
Civil Twilight 6:43 AM EDT 8:10 PM EDT
Nautical Twilight 6:13 AM EDT 8:40 PM EDT
Astronomical Twilight 5:43 AM EDT 9:10 PM EDT
Moon 9:46 AM EDT (4/3) 11:53 PM EDT (4/3)
Length of Visible Light 13h 27m
Length of Day
12h 36m
Waxing Crescent, 17% of the Moon is Illuminated
Apr 3
Waxing Crescent
Apr 7
First Quarter
Apr 15
Full
Apr 22
Last Quarter
Apr 29
New

Hourly Weather History & Observations

Time (EDT) Temp. Dew Point Humidity Pressure Visibility Wind Dir Wind Speed Gust Speed Precip Events Conditions
12:53 AM 63.0 °F 48.0 °F 58% 30.10 in 10.0 mi SSW 10.4 mph - N/A   Clear
1:53 AM 63.0 °F 46.9 °F 56% 30.09 in 10.0 mi SW 9.2 mph - N/A   Clear
2:53 AM 60.1 °F 48.0 °F 64% 30.07 in 10.0 mi SW 8.1 mph - N/A   Clear
3:53 AM 61.0 °F 46.9 °F 60% 30.05 in 10.0 mi SW 10.4 mph - N/A   Clear
4:53 AM 59.0 °F 48.0 °F 67% 30.05 in 10.0 mi SW 9.2 mph - N/A   Clear
5:53 AM 59.0 °F 48.0 °F 67% 30.05 in 10.0 mi SSW 5.8 mph - N/A   Clear
6:53 AM 57.0 °F 48.0 °F 72% 30.07 in 10.0 mi SSW 4.6 mph - N/A   Clear
7:53 AM 59.0 °F 48.9 °F 69% 30.09 in 9.0 mi SSW 4.6 mph - N/A   Clear
8:53 AM 62.1 °F 50.0 °F 65% 30.11 in 10.0 mi Variable 3.5 mph - N/A   Clear
10:53 AM 73.9 °F 51.1 °F 45% 30.11 in 9.0 mi SW 6.9 mph - N/A   Clear
11:53 AM 79.0 °F 46.9 °F 32% 30.09 in 10.0 mi SW 11.5 mph - N/A   Clear
12:53 PM 81.0 °F 42.1 °F 25% 30.07 in 10.0 mi SW 17.3 mph - N/A   Clear
1:53 PM 82.9 °F 42.1 °F 24% 30.04 in 10.0 mi SW 10.4 mph - N/A   Clear
2:53 PM 84.9 °F 41.0 °F 21% 30.01 in 10.0 mi WSW 17.3 mph 21.9 mph N/A   Clear
3:53 PM 84.9 °F 43.0 °F 23% 29.98 in 10.0 mi SW 16.1 mph 21.9 mph N/A   Clear
4:53 PM 84.9 °F 42.1 °F 22% 29.97 in 10.0 mi SW 13.8 mph - N/A   Clear
5:53 PM 84.9 °F 39.9 °F 20% 29.96 in 10.0 mi SW 18.4 mph - N/A   Clear
6:53 PM 82.0 °F 46.0 °F 28% 29.96 in 10.0 mi SSW 9.2 mph - N/A   Clear
7:53 PM 78.1 °F 46.9 °F 33% 29.97 in 10.0 mi SSW 5.8 mph - N/A   Clear
8:53 PM 75.0 °F 53.1 °F 46% 29.98 in 10.0 mi South 9.2 mph - N/A   Clear
9:53 PM 73.0 °F 54.0 °F 51% 29.98 in 10.0 mi South 10.4 mph - N/A   Clear
11:53 PM 68.0 °F 54.0 °F 61% 29.98 in 10.0 mi South 9.2 mph - N/A   Clear